Location: Newark
(34.3481°N, 134.0494°E)
Time: 04:54:18
(UTC+00:00)

Vanguard 3 - Pass Details

Date: 04 February 2020
Orbit: 508 x 3263 km, 33.3° (Epoch: 17 February)

Event Time Altitude Azimuth Distance (km) Brightness Sun altitude
Rises 12:52:57 0° 286° (WNW) 7,225 12.6 -52.9°
Reaches altitude 10° 12:58:53 10° 277° (W) 6,089 12.0 -54.1°
Maximum altitude 13:13:24 30° 226° (SW) 3,915 10.5 -56.8°
Enters shadow 13:13:33 30° 225° (SW) 3,906 10.5 -56.9°
Drops below altitude 10° 13:23:59 10° 171° (S) 4,366 - -58.8°
Sets 13:27:27 0° 160° (SSE) 4,979 - -59.4°
